Flag for Malawi Weather past 2 weeks in Mzuzu, Malawi

Now
57 °F

Passing clouds.


Feels Like: 57 °F
Forecast: 51 / 76 °F
Wind: No wind

Location: Songea

Current Time: Jul 29, 2015 at 5:19:58 AM

Latest Report: Jul 28, 2015 at 11:00 PM


Visibility: N/A

Pressure: 30.21 "Hg (25.94 "Hg at 1279m altitude)

Humidity: 82%

Dew point: 52 °F

Location of MzuzuLocation

Historic Weather in Mzuzu — Graph

°F

Mzuzu temperature yesterday

Maximum temperature yesterday: 73 °F (at 12:00 PM)
Minimum temperature yesterday: 55 °F (at 5:00 AM)
Average temperature yesterday: 66 °F

Past Weeks' High & Low Weather Summary

 TemperatureHumidityPressure
High81 °F (Jul 17, 2:00 PM)100% (Jul 26, 8:00 AM)30.30 "Hg (Jul 26, 8:00 AM)
Low52 °F (Jul 17, 7:00 AM)30% (Jul 27, 11:00 AM)30.09 "Hg (Jul 26, 4:00 PM)
Average69 °F57%30.22 "Hg
* Reported Jul 15 10:00 AM — Jul 28 11:00 PM, Mzuzu, Weather by CustomWeather, © 2015

Note: Actual official high and low records may vary slightly from our data, if they occured in-between our weather recording intervals... More about our weather records

Advertising

Mzuzu weather history for previous 24 hours

 ConditionsComfort  
Time TempWeatherWind HumidityBarometerVisibility
11:00 PM
Tue, Jul 28
57 °FPassing clouds.No wind82%30.21 "HgN/A
10:00 PM59 °FPassing clouds.No wind82%30.18 "HgN/A
9:00 PM61 °FPassing clouds.No wind77%30.18 "HgN/A
8:00 PM61 °FPassing clouds.8 mph77%30.18 "HgN/A
7:00 PM64 °FPassing clouds.6 mph73%30.18 "HgN/A
6:00 PM66 °FPartly sunny.6 mph68%30.18 "HgN/A
4:00 PM72 °FPartly sunny.6 mph53%30.18 "HgN/A
3:00 PM73 °FPartly sunny.8 mph47%30.21 "HgN/A
2:00 PM73 °FPartly sunny.12 mph47%30.21 "HgN/A
1:00 PM73 °FPartly sunny.13 mph50%30.21 "HgN/A
12:00 PM73 °FPartly sunny.12 mph47%30.24 "HgN/A
11:00 AM72 °FPartly sunny.14 mph53%30.24 "HgN/A
9:00 AM70 °FPartly sunny.14 mph57%30.27 "HgN/A
8:00 AM68 °FPartly sunny.12 mph56%30.24 "HgN/A
7:00 AM66 °FPartly sunny.12 mph64%30.24 "HgN/A
6:00 AM55 °FPassing clouds.No wind82%30.21 "HgN/A
5:00 AM55 °FPassing clouds.No wind88%30.21 "HgN/A
Weather by CustomWeather, © 2015

See weather overviewHow to use our weather pages